Flag for Germany Weather past 2 weeks in Würzburg, Bavaria, Germany

Now
55 °F

Overcast.


Feels Like: 55 °F
Forecast: 51 / 71 °F
Wind: 2 mph from Northwest

Location: Wuerzburg

Current Time: Sep 2, 2014 at 6:18:16 AM

Latest Report: Sep 2, 2014 at 6:00 AM


Visibility: 11 mi

Pressure: 30.13 "Hg

Humidity: 93%

Dew point: 53 °F

Location of WürzburgLocation

Historic Weather in Würzburg — Graph

°F

Würzburg temperature yesterday

Maximum temperature yesterday: 62 °F (at 3:00 PM)
Minimum temperature yesterday: 51 °F (at 7:00 AM)
Average temperature yesterday: 56 °F

Past Weeks' High & Low Weather Summary

 TemperatureHumidityPressure
High75 °F (Aug 28, 5:00 PM)99% (Aug 26, 6:00 AM)30.16 "Hg (Aug 26, 6:00 AM)
Low44 °F (Aug 25, 7:00 AM)35% (Aug 22, 12:00 PM)29.67 "Hg (Aug 26, 8:00 AM)
Average59 °F77%29.98 "Hg
* Reported Aug 18 5:00 AM — Sep 2 5:00 AM, Würzburg, Weather by CustomWeather, © 2014

Note: Actual official high and low records may vary slightly from our data, if they occured in-between our weather recording intervals... More about our weather records

Advertising

Würzburg weather history for previous 24 hours

 ConditionsComfort  
Time TempWeatherWind HumidityBarometerVisibility
5:00 AM
Sep 2
55 °FOvercast.1 mph92%30.14 "Hg10 mi
4:00 AM55 °FOvercast.1 mph92%30.14 "Hg11 mi
3:00 AM56 °FOvercast.2 mph93%30.14 "Hg11 mi
2:00 AM56 °FOvercast.2 mph91%30.15 "Hg14 mi
1:00 AM56 °FOvercast.1 mph95%30.14 "Hg16 mi
12:00 AM57 °FOvercast.2 mph88%30.15 "Hg16 mi
11:00 PM
Sep 1
57 °FOvercast.2 mph86%30.16 "Hg19 mi
10:00 PM56 °FOvercast.1 mph89%30.16 "Hg22 mi
9:00 PM57 °FOvercast.1 mph86%30.15 "Hg22 mi
8:00 PM58 °FOvercast.1 mph83%30.14 "Hg25 mi
7:00 PM59 °FOvercast.3 mph80%30.13 "Hg31 mi
6:00 PM60 °FOvercast.3 mph76%30.12 "Hg37 mi
5:00 PM60 °FOvercast.3 mph75%30.13 "Hg34 mi
4:00 PM61 °FOvercast.3 mph72%30.13 "Hg40 mi
3:00 PM62 °FOvercast.2 mph72%30.13 "Hg40 mi
2:00 PM61 °FOvercast.2 mph72%30.12 "Hg40 mi
1:00 PM60 °FOvercast.2 mph75%30.12 "Hg40 mi
12:00 PM58 °FOvercast.1 mph73%30.13 "Hg28 mi
11:00 AM57 °FOvercast.2 mph81%30.12 "Hg19 mi
10:00 AM56 °FOvercast.2 mph80%30.12 "Hg18 mi
9:00 AM54 °FOvercast.2 mph90%30.11 "Hg10 mi
8:00 AM53 °FPassing clouds.2 mph94%30.10 "Hg6 mi
7:00 AM51 °FPassing clouds.2 mph97%30.08 "Hg6 mi
6:00 AM52 °FPassing clouds.2 mph96%30.06 "Hg9 mi
Weather by CustomWeather, © 2014

See weather overviewHow to use our weather pages